Location: WWIN Observatory
(34.8953°N, 91.9583°W)
Time: 11:39:08
(UTC-05:00)

OTV 5 (USA 277) - Visible Passes

Search period start: 20 October 2019 00:00
Search period end: 30 October 2019 00:00
Orbit: 310 x 324 km, 54.5° (Epoch: 17 October)

Date Brightness Start Highest point End Pass type
(mag) Time Alt. Az. Time Alt. Az. Time Alt. Az.
20 Oct ? 06:08:43 18° NNW 06:10:28 41° NE 06:13:04 10° ESE visible
21 Oct ? 06:23:30 22° WNW 06:25:00 48° SW 06:27:38 10° SSE visible
22 Oct ? 05:07:29 10° E 05:07:29 10° E 05:07:32 10° E visible
22 Oct ? 06:38:25 13° WSW 06:39:21 14° SW 06:40:57 10° SSW visible
23 Oct ? 05:22:32 10° SE 05:22:32 10° SE 05:22:34 10° SE visible
26 Oct ? 19:10:20 10° S 19:12:25 20° SE 19:12:58 19° ESE visible
27 Oct ? 19:24:08 10° SW 19:26:50 74° SE 19:27:43 37° NE visible
28 Oct ? 19:38:57 10° WSW 19:41:24 30° NW 19:42:19 24° N visible
29 Oct ? 19:54:54 10° WNW 19:56:09 12° NW 19:56:47 12° NNW visible
